Location: Newark
(53.7833°N, 9.4833°E)
Time: 03:39:17
(UTC+00:00)

Envisat - Pass Details

Date: 13 December 2019
Orbit: 764 x 766 km, 98.1° (Epoch: 20 January)

Event Time Altitude Azimuth Distance (km) Brightness Sun altitude
Rises 06:05:03 0° 17° (NNE) 3,248 6.2 -11.6°
Reaches altitude 10° 06:07:25 10° 21° (NNE) 2,317 5.5 -11.3°
Maximum altitude 06:12:28 60° 101° (E) 878 3.7 -10.6°
Drops below altitude 10° 06:17:28 10° 182° (S) 2,299 5.8 -10.0°
Sets 06:19:48 0° 186° (S) 3,220 6.5 -9.7°
